DLH6YM LKPR-EDDH

Flight info

Callsign DLH6YM
Flight time 0h 55m
Altitude 36000
Route VENOX DCT DEKOV Y621 ESLOR M748 RARUP
Aircraft A321/M-DE2E3FGIJ1LORVWXYZ/HB2

Departure

Time 2026-05-07 16:51
Airport Václav Havel Airport Prague (LKPR)

Arrival

Time 2026-05-07 17:47
Airport Hamburg Helmut Schmidt Airport (EDDH)
Time Latitude Longitude Altitude Speed Heading
2026-05-07 16:31 50.10364 14.26741 1174 ft 0 kts 34°
2026-05-07 16:44 50.10347 14.26723 1169 ft 4 kts 25°
2026-05-07 16:44 50.10328 14.26717 1170 ft 3 kts 311°
2026-05-07 16:44 50.10325 14.26721 1170 ft 0 kts 304°
2026-05-07 16:46 50.10327 14.26718 1170 ft 1 kts 304°
2026-05-07 16:46 50.10339 14.26689 1170 ft 6 kts 304°
2026-05-07 16:47 50.10342 14.26617 1171 ft 6 kts 216°
2026-05-07 16:47 50.10295 14.26565 1172 ft 10 kts 215°
2026-05-07 16:47 50.10237 14.26534 1177 ft 8 kts 158°
2026-05-07 16:47 50.10195 14.26606 1176 ft 10 kts 128°
2026-05-07 16:48 50.10149 14.26703 1177 ft 14 kts 126°
2026-05-07 16:48 50.10079 14.26850 1188 ft 19 kts 128°
2026-05-07 16:48 50.09992 14.27025 1197 ft 23 kts 127°
2026-05-07 16:48 50.09906 14.27206 1201 ft 23 kts 126°
2026-05-07 16:49 50.09804 14.27389 1204 ft 20 kts 135°
2026-05-07 16:49 50.09711 14.27530 1206 ft 19 kts 135°
2026-05-07 16:49 50.09619 14.27675 1210 ft 18 kts 135°
2026-05-07 16:49 50.09528 14.27816 1213 ft 19 kts 135°
2026-05-07 16:50 50.09434 14.27956 1216 ft 19 kts 135°
2026-05-07 16:50 50.09336 14.28109 1215 ft 21 kts 135°
2026-05-07 16:50 50.09243 14.28250 1213 ft 20 kts 140°
2026-05-07 16:50 50.09127 14.28238 1211 ft 19 kts 221°
2026-05-07 16:51 50.09107 14.28042 1209 ft 21 kts 293°
2026-05-07 16:51 50.09281 14.27675 1213 ft 81 kts 307°
2026-05-07 16:51 50.09797 14.26590 1269 ft 159 kts 306°
2026-05-07 16:51 50.10497 14.25185 2199 ft 168 kts 310°
2026-05-07 16:52 50.11208 14.23699 3350 ft 174 kts 306°
2026-05-07 16:52 50.11950 14.22147 4191 ft 181 kts 306°
2026-05-07 16:52 50.12731 14.20562 4810 ft 188 kts 306°
2026-05-07 16:52 50.13543 14.18900 5333 ft 198 kts 305°
2026-05-07 16:53 50.14394 14.17134 5787 ft 212 kts 304°
2026-05-07 16:53 50.15317 14.15211 6213 ft 233 kts 304°
2026-05-07 16:53 50.16452 14.13264 6676 ft 255 kts 323°
2026-05-07 16:53 50.18148 14.12303 7352 ft 270 kts 352°
2026-05-07 16:54 50.20069 14.12235 8056 ft 280 kts 357°
2026-05-07 16:54 50.22040 14.12281 8802 ft 287 kts 359°
2026-05-07 16:54 50.24054 14.12375 9604 ft 292 kts 359°
2026-05-07 16:54 50.26107 14.12475 10303 ft 300 kts 360°
2026-05-07 16:55 50.28278 14.12572 10576 ft 323 kts
2026-05-07 16:55 50.30598 14.12661 10879 ft 341 kts 359°
2026-05-07 16:55 50.32992 14.12743 11510 ft 347 kts 359°
2026-05-07 16:55 50.35420 14.12820 12225 ft 351 kts 359°
2026-05-07 16:56 50.37880 14.12890 12929 ft 355 kts 359°
2026-05-07 16:56 50.40364 14.12960 13620 ft 360 kts 359°
2026-05-07 16:56 50.45422 14.13102 14924 ft 366 kts 359°
2026-05-07 16:57 50.47978 14.13173 15576 ft 369 kts 359°
2026-05-07 16:57 50.50523 14.13247 16605 ft 357 kts 359°
2026-05-07 16:57 50.52939 14.13327 18027 ft 337 kts 359°
2026-05-07 16:57 50.55205 14.13427 19293 ft 316 kts
2026-05-07 16:58 50.57325 14.13838 20391 ft 301 kts
2026-05-07 16:58 50.59383 14.14330 21093 ft 300 kts
2026-05-07 16:58 50.61450 14.14830 21666 ft 301 kts
2026-05-07 16:58 50.63540 14.15334 22151 ft 306 kts
2026-05-07 16:59 50.65650 14.15840 22699 ft 308 kts
2026-05-07 16:59 50.67777 14.16349 23248 ft 311 kts
2026-05-07 16:59 50.69918 14.16862 23717 ft 314 kts
2026-05-07 16:59 50.72109 14.17386 24129 ft 317 kts
2026-05-07 17:00 50.74293 14.17906 24598 ft 318 kts
2026-05-07 17:00 50.76474 14.18428 25022 ft 321 kts
2026-05-07 17:00 50.78711 14.18967 25430 ft 324 kts
2026-05-07 17:00 50.80950 14.19508 25878 ft 326 kts
2026-05-07 17:01 50.83202 14.20051 26321 ft 328 kts
2026-05-07 17:01 50.85459 14.20596 26806 ft 328 kts
2026-05-07 17:01 50.87716 14.21123 27292 ft 328 kts
2026-05-07 17:01 50.89969 14.21325 27722 ft 330 kts 359°
2026-05-07 17:02 50.92267 14.21092 28123 ft 332 kts 352°
2026-05-07 17:02 50.94565 14.20581 28495 ft 336 kts 352°
2026-05-07 17:02 50.96889 14.20064 28878 ft 338 kts 352°
2026-05-07 17:02 50.99259 14.19543 29280 ft 341 kts 352°
2026-05-07 17:03 51.01588 14.19011 29645 ft 344 kts 349°
2026-05-07 17:03 51.03921 14.18116 30005 ft 346 kts 342°
2026-05-07 17:03 51.06182 14.16753 30320 ft 349 kts 334°
2026-05-07 17:03 51.08329 14.14949 30603 ft 351 kts 327°
2026-05-07 17:04 51.10337 14.12722 30905 ft 352 kts 320°
2026-05-07 17:04 51.12199 14.10185 31203 ft 354 kts 317°
2026-05-07 17:04 51.14066 14.07596 31460 ft 357 kts 317°
2026-05-07 17:04 51.15943 14.04995 31770 ft 359 kts 317°
2026-05-07 17:05 51.17837 14.02369 32067 ft 362 kts 317°
2026-05-07 17:05 51.19737 13.99731 32347 ft 364 kts 317°
2026-05-07 17:05 51.21654 13.97061 32579 ft 367 kts 317°
2026-05-07 17:05 51.23581 13.94373 32844 ft 370 kts 317°
2026-05-07 17:06 51.25289 13.91986 33078 ft 372 kts 316°
2026-05-07 17:06 51.27238 13.89266 33342 ft 374 kts 316°
2026-05-07 17:06 51.29206 13.86521 33571 ft 376 kts 316°
2026-05-07 17:06 51.31085 13.83893 33806 ft 379 kts 316°
2026-05-07 17:07 51.33071 13.81109 34040 ft 381 kts 316°
2026-05-07 17:07 51.35058 13.78320 34245 ft 382 kts 316°
2026-05-07 17:07 51.37047 13.75528 34445 ft 384 kts 316°
2026-05-07 17:07 51.39060 13.72696 34621 ft 386 kts 316°
2026-05-07 17:08 51.41081 13.69848 34814 ft 388 kts 316°
2026-05-07 17:08 51.42426 13.67949 34942 ft 389 kts 316°
2026-05-07 17:08 51.44616 13.64854 35148 ft 391 kts 316°
2026-05-07 17:08 51.46507 13.62181 35323 ft 392 kts 316°
2026-05-07 17:09 51.48554 13.59288 35528 ft 393 kts 316°
2026-05-07 17:09 51.50612 13.56377 35694 ft 396 kts 316°
2026-05-07 17:09 51.52683 13.53446 35873 ft 397 kts 316°
2026-05-07 17:09 51.54739 13.50534 36019 ft 399 kts 316°
2026-05-07 17:10 51.58963 13.44535 36071 ft 412 kts 316°
2026-05-07 17:10 51.62510 13.39468 36078 ft 423 kts 316°
2026-05-07 17:11 51.67054 13.32967 36081 ft 438 kts 316°
2026-05-07 17:11 51.71648 13.26372 36084 ft 445 kts 316°
2026-05-07 17:12 51.76277 13.19716 36092 ft 446 kts 316°
2026-05-07 17:12 51.80849 13.13118 36084 ft 445 kts 316°
2026-05-07 17:13 51.85465 13.06443 36067 ft 445 kts 316°
2026-05-07 17:13 51.90078 12.99751 36069 ft 445 kts 316°
2026-05-07 17:14 51.94660 12.93086 36075 ft 445 kts 316°
2026-05-07 17:14 51.99298 12.86327 36076 ft 445 kts 316°
2026-05-07 17:15 52.03123 12.80731 36081 ft 445 kts 316°
2026-05-07 17:15 52.07723 12.73987 36089 ft 445 kts 316°
2026-05-07 17:16 52.13060 12.66146 36088 ft 445 kts 316°
2026-05-07 17:16 52.16897 12.60485 36087 ft 444 kts 316°
2026-05-07 17:17 52.21474 12.53710 36090 ft 444 kts 316°
2026-05-07 17:17 52.26034 12.46910 36088 ft 444 kts 315°
2026-05-07 17:18 52.28245 12.43393 35965 ft 444 kts 313°
2026-05-07 17:18 52.30380 12.39760 35727 ft 442 kts 312°
2026-05-07 17:18 52.32466 12.36060 35475 ft 442 kts 311°
2026-05-07 17:18 52.34640 12.32508 35237 ft 442 kts 316°
2026-05-07 17:19 52.36909 12.29110 35000 ft 443 kts 317°
2026-05-07 17:19 52.39205 12.25749 34762 ft 443 kts 317°
2026-05-07 17:19 52.41521 12.22411 34104 ft 446 kts 318°
2026-05-07 17:19 52.43860 12.19066 33517 ft 443 kts 318°
2026-05-07 17:20 52.46164 12.15774 33020 ft 437 kts 318°
2026-05-07 17:20 52.48412 12.12549 32522 ft 432 kts 318°
2026-05-07 17:20 52.50653 12.09314 32024 ft 427 kts 318°
2026-05-07 17:20 52.52866 12.06102 31507 ft 423 kts 318°
2026-05-07 17:21 52.55057 12.02911 31024 ft 418 kts 318°
2026-05-07 17:21 52.57219 11.99764 30529 ft 414 kts 318°
2026-05-07 17:21 52.59356 11.96646 30020 ft 410 kts 318°
2026-05-07 17:21 52.61476 11.93547 29507 ft 405 kts 318°
2026-05-07 17:22 52.63570 11.90498 29038 ft 399 kts 319°
2026-05-07 17:22 52.65691 11.87594 28643 ft 398 kts 321°
2026-05-07 17:22 52.68009 11.84628 28222 ft 403 kts 322°
2026-05-07 17:22 52.70140 11.81993 27839 ft 402 kts 323°
2026-05-07 17:23 52.72376 11.79252 27440 ft 400 kts 322°
2026-05-07 17:23 52.74597 11.76515 27043 ft 397 kts 322°
2026-05-07 17:23 52.76791 11.73777 26655 ft 394 kts 322°
2026-05-07 17:23 52.78963 11.71033 26260 ft 391 kts 321°
2026-05-07 17:24 52.81097 11.68319 25873 ft 388 kts 322°
2026-05-07 17:24 52.83237 11.65584 25489 ft 385 kts 321°
2026-05-07 17:24 52.85401 11.62811 25096 ft 381 kts 321°
2026-05-07 17:24 52.87426 11.60211 24731 ft 378 kts 321°
2026-05-07 17:25 52.89756 11.57220 24319 ft 376 kts 321°
2026-05-07 17:25 52.91562 11.54902 23985 ft 374 kts 321°
2026-05-07 17:25 52.93625 11.52258 23603 ft 372 kts 321°
2026-05-07 17:25 52.95640 11.49678 23072 ft 370 kts 321°
2026-05-07 17:26 52.97673 11.47074 22469 ft 368 kts 321°
2026-05-07 17:26 52.99690 11.44484 21880 ft 366 kts 321°
2026-05-07 17:26 53.01705 11.41889 21241 ft 365 kts 321°
2026-05-07 17:26 53.03701 11.39311 20605 ft 364 kts 321°
2026-05-07 17:27 53.05695 11.36733 19977 ft 363 kts 321°
2026-05-07 17:27 53.07687 11.34161 19363 ft 362 kts 321°
2026-05-07 17:27 53.09676 11.31600 18744 ft 360 kts 322°
2026-05-07 17:27 53.11655 11.29053 18113 ft 359 kts 321°
2026-05-07 17:28 53.13652 11.26569 17454 ft 358 kts 323°
2026-05-07 17:28 53.15541 11.23915 16787 ft 355 kts 309°
2026-05-07 17:28 53.16769 11.20392 16141 ft 352 kts 289°
2026-05-07 17:28 53.17458 11.16486 15505 ft 351 kts 285°
2026-05-07 17:29 53.18083 11.12566 14881 ft 349 kts 285°
2026-05-07 17:29 53.18696 11.08675 14331 ft 346 kts 284°
2026-05-07 17:29 53.19294 11.04856 13799 ft 331 kts 285°
2026-05-07 17:29 53.19864 11.01199 13181 ft 323 kts 284°
2026-05-07 17:30 53.20426 10.97601 12498 ft 316 kts 284°
2026-05-07 17:30 53.20980 10.94046 11890 ft 316 kts 284°
2026-05-07 17:30 53.21529 10.90522 11422 ft 312 kts 284°
2026-05-07 17:30 53.22081 10.86984 10915 ft 310 kts 284°
2026-05-07 17:31 53.22617 10.83557 10464 ft 307 kts 284°
2026-05-07 17:31 53.23141 10.80206 10178 ft 289 kts 284°
2026-05-07 17:31 53.23648 10.76956 9595 ft 288 kts 284°
2026-05-07 17:31 53.24139 10.73757 9184 ft 285 kts 284°
2026-05-07 17:32 53.24618 10.70592 8753 ft 284 kts 284°
2026-05-07 17:32 53.25094 10.67380 8321 ft 283 kts 284°
2026-05-07 17:32 53.25557 10.64194 7893 ft 283 kts 284°
2026-05-07 17:32 53.26009 10.61017 7481 ft 282 kts 284°
2026-05-07 17:33 53.26454 10.57828 7131 ft 279 kts 284°
2026-05-07 17:33 53.26889 10.54658 7077 ft 282 kts 284°
2026-05-07 17:33 53.27326 10.51457 7088 ft 284 kts 284°
2026-05-07 17:33 53.27765 10.48247 7086 ft 283 kts 284°
2026-05-07 17:34 53.28206 10.45046 7086 ft 282 kts 284°
2026-05-07 17:34 53.28649 10.41848 7086 ft 282 kts 284°
2026-05-07 17:34 53.29091 10.38671 6924 ft 279 kts 284°
2026-05-07 17:34 53.29527 10.35520 6550 ft 277 kts 284°
2026-05-07 17:35 53.29958 10.32415 6169 ft 275 kts 284°
2026-05-07 17:35 53.30392 10.29285 5750 ft 274 kts 284°
2026-05-07 17:35 53.30833 10.26188 5351 ft 273 kts 284°
2026-05-07 17:35 53.31276 10.23102 5018 ft 270 kts 284°
2026-05-07 17:36 53.31719 10.20029 4986 ft 273 kts 284°
2026-05-07 17:36 53.32166 10.16929 4989 ft 274 kts 284°
2026-05-07 17:36 53.32613 10.13828 4990 ft 275 kts 284°
2026-05-07 17:36 53.33065 10.10721 4993 ft 275 kts 284°
2026-05-07 17:37 53.33515 10.07611 4991 ft 275 kts 284°
2026-05-07 17:37 53.33961 10.04517 4991 ft 275 kts 284°
2026-05-07 17:37 53.34410 10.01393 4991 ft 275 kts 284°
2026-05-07 17:37 53.34857 9.98283 4991 ft 274 kts 284°
2026-05-07 17:38 53.35306 9.95177 4987 ft 275 kts 284°
2026-05-07 17:38 53.35754 9.92070 4988 ft 274 kts 284°
2026-05-07 17:38 53.36200 9.88970 4994 ft 275 kts 284°
2026-05-07 17:38 53.36644 9.85864 4992 ft 274 kts 284°
2026-05-07 17:39 53.37090 9.82761 4989 ft 274 kts 284°
2026-05-07 17:39 53.37536 9.79661 4990 ft 271 kts 284°
2026-05-07 17:39 53.38234 9.76886 4979 ft 245 kts 310°
2026-05-07 17:39 53.39438 9.74959 5016 ft 239 kts 323°
2026-05-07 17:40 53.40732 9.73241 4863 ft 235 kts 324°
2026-05-07 17:40 53.42028 9.71553 4677 ft 237 kts 324°
2026-05-07 17:40 53.43328 9.69861 4482 ft 236 kts 324°
2026-05-07 17:40 53.44717 9.68456 4319 ft 232 kts 344°
2026-05-07 17:41 53.46274 9.68143 4237 ft 228 kts
2026-05-07 17:41 53.47774 9.68878 4154 ft 225 kts 30°
2026-05-07 17:41 53.48981 9.70537 4039 ft 222 kts 50°
2026-05-07 17:41 53.49976 9.72528 3777 ft 221 kts 51°
2026-05-07 17:42 53.50957 9.74509 3486 ft 220 kts 51°
2026-05-07 17:42 53.51924 9.76451 3193 ft 220 kts 51°
2026-05-07 17:42 53.52900 9.78408 2882 ft 212 kts 51°
2026-05-07 17:42 53.53799 9.80209 2610 ft 193 kts 52°
2026-05-07 17:43 53.54629 9.81874 2365 ft 176 kts 51°
2026-05-07 17:43 53.55388 9.83402 2153 ft 171 kts 52°
2026-05-07 17:43 53.56139 9.84924 1941 ft 167 kts 52°
2026-05-07 17:43 53.56856 9.86376 1699 ft 156 kts 52°
2026-05-07 17:44 53.57543 9.87734 1417 ft 148 kts 51°
2026-05-07 17:44 53.58184 9.89015 1253 ft 140 kts 52°
2026-05-07 17:44 53.58784 9.90235 1124 ft 130 kts 52°
2026-05-07 17:44 53.59359 9.91407 954 ft 128 kts 51°
2026-05-07 17:45 53.59932 9.92554 760 ft 129 kts 52°
2026-05-07 17:45 53.60508 9.93719 572 ft 129 kts 49°
2026-05-07 17:45 53.61094 9.94885 382 ft 131 kts 50°
2026-05-07 17:45 53.61668 9.96045 178 ft 127 kts 50°
2026-05-07 17:46 53.62228 9.97186 46 ft 120 kts 50°
2026-05-07 17:46 53.62684 9.98105 42 ft 80 kts 50°
2026-05-07 17:46 53.62976 9.98693 45 ft 55 kts 50°
2026-05-07 17:46 53.63219 9.99186 47 ft 50 kts 53°
2026-05-07 17:47 53.63287 9.99557 48 ft 18 kts 95°
2026-05-07 17:47 53.63282 9.99622 48 ft 0 kts 97°
2026-05-07 17:49 53.63281 9.99635 48 ft 4 kts 97°
2026-05-07 17:49 53.63241 9.99747 49 ft 21 kts 146°
2026-05-07 17:49 53.63123 9.99846 49 ft 14 kts 153°
2026-05-07 17:50 53.63042 9.99916 49 ft 14 kts 153°
2026-05-07 17:50 53.62951 10.00007 49 ft 16 kts 131°
2026-05-07 17:50 53.62922 10.00134 46 ft 10 kts 123°
2026-05-07 17:50 53.62891 10.00213 49 ft 0 kts 121°
2026-05-07 17:51 53.62890 10.00216 46 ft 0 kts 121°